Location: Epalinges
(46.5518°N, 6.6683°E)
Time: 19:14:48
(UTC+00:00)

X-37B - Pass Details

Date: 20 June 2021
Orbit: 383 x 392 km, 45.0° (Epoch: 01 July)

Event Time Altitude Azimuth Distance (km) Brightness Sun altitude
Exits shadow 00:28:43 35° 105° (ESE) 646 1.6 -19.0°
Drops below altitude 10° 00:30:43 10° 93° (E) 1,406 3.5 -18.9°
Sets 00:32:48 0° 90° (E) 2,262 4.6 -18.8°
